Time,TemperatureF,DewpointF,PressureIn,WindDirection,WindDirectionDegrees,WindSpeedMPH,WindSpeedGustMPH,Humidity,HourlyPrecipIn,Conditions,Clouds,dailyrainin,SoftwareType,DateUTC
2013-02-24 00:01:00,37.0,21.0,-100.00,East,101,2.0,4.0,53,-99.99,,,-99.99,,2013-02-24 08:01:00,
2013-02-24 00:11:00,36.0,21.0,-100.00,NNE,25,1.0,3.0,55,-99.99,,,-99.99,,2013-02-24 08:11:00,
2013-02-24 00:22:00,36.0,21.0,-100.00,NE,39,1.0,3.0,55,-99.99,,,-99.99,,2013-02-24 08:22:00,
2013-02-24 00:31:00,37.0,22.0,-100.00,North,352,2.0,5.0,54,-99.99,,,-99.99,,2013-02-24 08:31:00,
2013-02-24 00:41:00,38.0,22.0,-100.00,North,6,1.0,3.0,52,-99.99,,,-99.99,,2013-02-24 08:41:00,
2013-02-24 00:53:00,38.0,22.0,-100.00,East,87,1.0,2.0,53,-99.99,,,-99.99,,2013-02-24 08:53:00,
2013-02-24 01:01:00,38.0,23.0,-100.00,NE,38,1.0,2.0,54,-99.99,,,-99.99,,2013-02-24 09:01:00,
2013-02-24 01:11:00,38.0,24.0,-100.00,NE,42,2.0,3.0,57,-99.99,,,-99.99,,2013-02-24 09:11:00,
2013-02-24 01:21:00,37.0,24.0,-100.00,North,350,2.0,4.0,60,-99.99,,,-99.99,,2013-02-24 09:21:00,
2013-02-24 01:31:00,37.0,25.0,-100.00,NNW,343,1.0,3.0,61,-99.99,,,-99.99,,2013-02-24 09:31:00,
2013-02-24 01:41:00,36.0,24.0,-100.00,SE,142,1.0,4.0,62,-99.99,,,-99.99,,2013-02-24 09:41:00,
2013-02-24 01:51:00,37.0,25.0,-100.00,NNW,345,2.0,4.0,61,-99.99,,,-99.99,,2013-02-24 09:51:00,
2013-02-24 02:01:00,38.0,25.0,-100.00,NNE,12,1.0,2.0,58,-99.99,,,-99.99,,2013-02-24 10:01:00,
2013-02-24 02:11:00,39.0,25.0,-100.00,North,1,2.0,3.0,56,-99.99,,,-99.99,,2013-02-24 10:11:00,
2013-02-24 02:21:00,38.0,25.0,-100.00,NNW,339,2.0,3.0,58,-99.99,,,-99.99,,2013-02-24 10:21:00,
2013-02-24 02:31:00,38.0,25.0,-100.00,North,359,2.0,4.0,59,-99.99,,,-99.99,,2013-02-24 10:31:00,
2013-02-24 02:41:00,38.0,27.0,-100.00,NNW,339,3.0,5.0,63,-99.99,,,-99.99,,2013-02-24 10:41:00,
2013-02-24 02:51:00,38.0,27.0,-100.00,North,349,4.0,6.0,63,-99.99,,,-99.99,,2013-02-24 10:51:00,
2013-02-24 03:01:00,36.0,26.0,-100.00,NNW,345,2.0,6.0,67,-99.99,,,-99.99,,2013-02-24 11:01:00,
2013-02-24 03:11:00,38.0,27.0,-100.00,North,350,3.0,4.0,65,-99.99,,,-99.99,,2013-02-24 11:11:00,
2013-02-24 03:21:00,37.0,27.0,-100.00,North,1,3.0,5.0,66,-99.99,,,-99.99,,2013-02-24 11:21:00,
2013-02-24 03:32:00,37.0,26.0,-100.00,North,351,4.0,7.0,65,-99.99,,,-99.99,,2013-02-24 11:32:00,
2013-02-24 03:41:00,37.0,26.0,-100.00,North,0,5.0,7.0,64,-99.99,,,-99.99,,2013-02-24 11:41:00,
2013-02-24 03:52:00,36.0,25.0,-100.00,NNE,12,5.0,8.0,65,-99.99,,,-99.99,,2013-02-24 11:52:00,
2013-02-24 04:01:00,37.0,25.0,-100.00,North,6,7.0,11.0,61,-99.99,,,-99.99,,2013-02-24 12:01:00,
2013-02-24 04:11:00,37.0,24.0,-100.00,North,6,9.0,11.0,58,-99.99,,,-99.99,,2013-02-24 12:11:00,
2013-02-24 04:21:00,38.0,24.0,-100.00,NNE,23,11.0,16.0,57,-99.99,,,-99.99,,2013-02-24 12:21:00,
2013-02-24 04:32:00,38.0,24.0,-100.00,NNE,28,11.0,15.0,56,-99.99,,,-99.99,,2013-02-24 12:32:00,
2013-02-24 05:05:00,39.0,23.0,-100.00,NNE,31,9.0,15.0,52,-99.99,,,-99.99,,2013-02-24 13:05:00,
2013-02-24 05:15:00,39.0,22.0,-100.00,NNE,28,8.0,13.0,50,-99.99,,,-99.99,,2013-02-24 13:15:00,
2013-02-24 05:23:00,39.0,22.0,-100.00,NNE,30,8.0,13.0,50,-99.99,,,-99.99,,2013-02-24 13:23:00,
2013-02-24 05:32:00,38.0,21.0,-100.00,NNE,32,7.0,11.0,49,-99.99,,,-99.99,,2013-02-24 13:32:00,
2013-02-24 05:43:00,38.0,20.0,-100.00,NNE,25,7.0,13.0,48,-99.99,,,-99.99,,2013-02-24 13:43:00,
2013-02-24 05:52:00,38.0,19.0,-100.00,NNE,28,8.0,16.0,46,-99.99,,,-99.99,,2013-02-24 13:52:00,
2013-02-24 06:02:00,38.0,19.0,-100.00,NE,38,6.0,10.0,45,-99.99,,,-99.99,,2013-02-24 14:02:00,
2013-02-24 06:12:00,38.0,19.0,-100.00,NE,44,5.0,9.0,46,-99.99,,,-99.99,,2013-02-24 14:12:00,
2013-02-24 06:23:00,38.0,18.0,-100.00,ENE,60,6.0,9.0,44,-99.99,,,-99.99,,2013-02-24 14:23:00,
2013-02-24 06:32:00,38.0,16.0,-100.00,ENE,58,8.0,12.0,41,-99.99,,,-99.99,,2013-02-24 14:32:00,
2013-02-24 06:43:00,38.0,15.0,-100.00,NE,52,7.0,12.0,39,-99.99,,,-99.99,,2013-02-24 14:43:00,
2013-02-24 06:52:00,38.0,15.0,-100.00,NE,51,9.0,15.0,39,-99.99,,,-99.99,,2013-02-24 14:52:00,
2013-02-24 07:02:00,38.0,13.0,-100.00,ENE,61,11.0,17.0,36,-99.99,,,-99.99,,2013-02-24 15:02:00,
2013-02-24 07:12:00,38.0,13.0,-100.00,ENE,61,11.0,16.0,35,-99.99,,,-99.99,,2013-02-24 15:12:00,
2013-02-24 07:22:00,38.0,13.0,-100.00,NE,48,9.0,18.0,35,-99.99,,,-99.99,,2013-02-24 15:22:00,
2013-02-24 07:31:00,38.0,11.0,-100.00,NE,36,14.0,21.0,33,-99.99,,,-99.99,,2013-02-24 15:31:00,
2013-02-24 07:41:00,39.0,10.0,-100.00,NNE,33,14.0,27.0,30,-99.99,,,-99.99,,2013-02-24 15:41:00,
2013-02-24 07:52:00,39.0,9.0,-100.00,NE,37,14.0,25.0,28,-99.99,,,-99.99,,2013-02-24 15:52:00,
2013-02-24 08:01:00,40.0,9.0,-100.00,NE,39,15.0,26.0,27,-99.99,,,-99.99,,2013-02-24 16:01:00,
2013-02-24 08:11:00,40.0,5.0,-100.00,NE,42,16.0,27.0,23,-99.99,,,-99.99,,2013-02-24 16:11:00,
2013-02-24 08:21:00,40.0,0.0,-100.00,NE,45,18.0,30.0,18,-99.99,,,-99.99,,2013-02-24 16:21:00,
2013-02-24 08:31:00,41.0,1.0,-100.00,NE,42,14.0,24.0,18,-99.99,,,-99.99,,2013-02-24 16:31:00,
2013-02-24 08:41:00,41.0,1.0,-100.00,NE,40,16.0,28.0,18,-99.99,,,-99.99,,2013-02-24 16:41:00,
2013-02-24 08:52:00,41.0,1.0,-100.00,NE,40,16.0,28.0,18,-99.99,,,-99.99,,2013-02-24 16:52:00,
2013-02-24 09:01:00,41.0,0.0,-100.00,NE,37,21.0,40.0,17,-99.99,,,-99.99,,2013-02-24 17:01:00,
2013-02-24 09:11:00,41.0,-2.0,-100.00,NE,37,19.0,31.0,16,-99.99,,,-99.99,,2013-02-24 17:11:00,
2013-02-24 09:21:00,41.0,0.0,-100.00,NE,37,18.0,32.0,17,-99.99,,,-99.99,,2013-02-24 17:21:00,
2013-02-24 09:31:00,42.0,0.0,-100.00,NNE,32,18.0,30.0,17,-99.99,,,-99.99,,2013-02-24 17:31:00,
2013-02-24 09:41:00,42.0,-1.0,-100.00,NE,39,17.0,31.0,16,-99.99,,,-99.99,,2013-02-24 17:41:00,
2013-02-24 09:52:00,42.0,-2.0,-100.00,NE,37,18.0,29.0,15,-99.99,,,-99.99,,2013-02-24 17:52:00,
2013-02-24 10:01:00,42.0,-2.0,-100.00,NE,37,18.0,29.0,15,-99.99,,,-99.99,,2013-02-24 18:01:00,
2013-02-24 10:11:00,42.0,-2.0,-100.00,NE,35,20.0,32.0,15,-99.99,,,-99.99,,2013-02-24 18:11:00,
2013-02-24 10:21:00,42.0,-1.0,-100.00,NE,35,20.0,30.0,16,-99.99,,,-99.99,,2013-02-24 18:21:00,
2013-02-24 10:31:00,43.0,0.0,-100.00,NE,40,18.0,28.0,16,-99.99,,,-99.99,,2013-02-24 18:31:00,
2013-02-24 10:41:00,42.0,-2.0,-100.00,NE,52,18.0,28.0,15,-99.99,,,-99.99,,2013-02-24 18:41:00,
2013-02-24 10:51:00,43.0,0.0,-100.00,NE,38,17.0,30.0,16,-99.99,,,-99.99,,2013-02-24 18:51:00,
2013-02-24 11:01:00,43.0,0.0,-100.00,NE,53,17.0,31.0,16,-99.99,,,-99.99,,2013-02-24 19:01:00,
2013-02-24 11:11:00,43.0,0.0,-100.00,NE,38,18.0,32.0,16,-99.99,,,-99.99,,2013-02-24 19:11:00,
2013-02-24 11:22:00,43.0,0.0,-100.00,NE,37,18.0,29.0,16,-99.99,,,-99.99,,2013-02-24 19:22:00,
2013-02-24 11:31:00,43.0,1.0,-100.00,NNE,31,18.0,32.0,17,-99.99,,,-99.99,,2013-02-24 19:31:00,
2013-02-24 11:41:00,43.0,0.0,-100.00,NE,37,17.0,25.0,16,-99.99,,,-99.99,,2013-02-24 19:41:00,
2013-02-24 11:51:00,44.0,2.0,-100.00,NE,34,17.0,30.0,17,-99.99,,,-99.99,,2013-02-24 19:51:00,
2013-02-24 12:01:00,44.0,1.0,-100.00,NE,40,16.0,27.0,16,-99.99,,,-99.99,,2013-02-24 20:01:00,
2013-02-24 12:11:00,44.0,2.0,-100.00,NE,53,16.0,27.0,17,-99.99,,,-99.99,,2013-02-24 20:11:00,
2013-02-24 12:21:00,44.0,2.0,-100.00,NE,46,15.0,25.0,17,-99.99,,,-99.99,,2013-02-24 20:21:00,
2013-02-24 12:31:00,44.0,2.0,-100.00,ENE,60,18.0,27.0,17,-99.99,,,-99.99,,2013-02-24 20:31:00,
2013-02-24 12:41:00,44.0,3.0,-100.00,NE,52,15.0,24.0,18,-99.99,,,-99.99,,2013-02-24 20:41:00,
2013-02-24 12:52:00,45.0,4.0,-100.00,NE,41,15.0,27.0,18,-99.99,,,-99.99,,2013-02-24 20:52:00,
2013-02-24 13:01:00,44.0,3.0,-100.00,ENE,59,14.0,23.0,18,-99.99,,,-99.99,,2013-02-24 21:01:00,
2013-02-24 13:11:00,44.0,2.0,-100.00,NE,35,16.0,26.0,17,-99.99,,,-99.99,,2013-02-24 21:11:00,
2013-02-24 13:21:00,44.0,2.0,-100.00,NE,51,15.0,27.0,17,-99.99,,,-99.99,,2013-02-24 21:21:00,
2013-02-24 13:32:00,45.0,3.0,-100.00,NE,55,14.0,23.0,17,-99.99,,,-99.99,,2013-02-24 21:32:00,
2013-02-24 13:41:00,45.0,2.0,-100.00,NE,45,16.0,26.0,16,-99.99,,,-99.99,,2013-02-24 21:41:00,
2013-02-24 13:52:00,45.0,2.0,-100.00,ENE,57,15.0,23.0,16,-99.99,,,-99.99,,2013-02-24 21:52:00,
2013-02-24 14:01:00,45.0,2.0,-100.00,NE,47,13.0,24.0,16,-99.99,,,-99.99,,2013-02-24 22:01:00,
2013-02-24 14:11:00,45.0,0.0,-100.00,ENE,66,12.0,23.0,15,-99.99,,,-99.99,,2013-02-24 22:11:00,
2013-02-24 14:21:00,45.0,0.0,-100.00,NE,52,15.0,26.0,15,-99.99,,,-99.99,,2013-02-24 22:21:00,
2013-02-24 14:31:00,45.0,0.0,-100.00,NE,51,13.0,22.0,15,-99.99,,,-99.99,,2013-02-24 22:31:00,
2013-02-24 14:41:00,46.0,1.0,-100.00,NE,55,10.0,17.0,15,-99.99,,,-99.99,,2013-02-24 22:41:00,
2013-02-24 14:51:00,46.0,1.0,-100.00,NE,47,12.0,25.0,15,-99.99,,,-99.99,,2013-02-24 22:51:00,
2013-02-24 15:01:00,45.0,-1.0,-100.00,NE,42,13.0,25.0,14,-99.99,,,-99.99,,2013-02-24 23:01:00,
2013-02-24 15:11:00,46.0,0.0,-100.00,ENE,59,13.0,22.0,14,-99.99,,,-99.99,,2013-02-24 23:11:00,
2013-02-24 15:21:00,46.0,0.0,-100.00,NE,41,14.0,20.0,14,-99.99,,,-99.99,,2013-02-24 23:21:00,
2013-02-24 15:31:00,46.0,0.0,-100.00,NE,44,13.0,24.0,14,-99.99,,,-99.99,,2013-02-24 23:31:00,
2013-02-24 15:41:00,46.0,-2.0,-100.00,NE,56,14.0,21.0,13,-99.99,,,-99.99,,2013-02-24 23:41:00,
2013-02-24 15:52:00,46.0,0.0,-100.00,NE,49,13.0,21.0,14,-99.99,,,-99.99,,2013-02-24 23:52:00,
2013-02-24 16:01:00,46.0,0.0,-100.00,NE,49,13.0,21.0,14,-99.99,,,-99.99,,2013-02-25 00:01:00,
2013-02-24 16:11:00,46.0,0.0,-100.00,NE,44,12.0,22.0,14,-99.99,,,-99.99,,2013-02-25 00:11:00,
2013-02-24 16:21:00,45.0,-1.0,-100.00,NE,38,13.0,20.0,14,-99.99,,,-99.99,,2013-02-25 00:21:00,
2013-02-24 16:31:00,45.0,-1.0,-100.00,NE,37,9.0,16.0,14,-99.99,,,-99.99,,2013-02-25 00:31:00,
2013-02-24 16:41:00,45.0,0.0,-100.00,NE,46,10.0,20.0,15,-99.99,,,-99.99,,2013-02-25 00:41:00,
2013-02-24 16:51:00,45.0,0.0,-100.00,NE,54,9.0,16.0,15,-99.99,,,-99.99,,2013-02-25 00:51:00,
2013-02-24 17:01:00,45.0,0.0,-100.00,NE,53,8.0,16.0,15,-99.99,,,-99.99,,2013-02-25 01:01:00,
2013-02-24 17:11:00,45.0,0.0,-100.00,ENE,68,9.0,18.0,15,-99.99,,,-99.99,,2013-02-25 01:11:00,
2013-02-24 17:21:00,44.0,-2.0,-100.00,ENE,59,9.0,14.0,14,-99.99,,,-99.99,,2013-02-25 01:21:00,
2013-02-24 17:31:00,44.0,-2.0,-100.00,ENE,59,9.0,14.0,14,-99.99,,,-99.99,,2013-02-25 01:31:00,
2013-02-24 17:42:00,44.0,-2.0,-100.00,ENE,58,9.0,17.0,14,-99.99,,,-99.99,,2013-02-25 01:42:00,
2013-02-24 17:51:00,44.0,-1.0,-100.00,NE,48,8.0,13.0,15,-99.99,,,-99.99,,2013-02-25 01:51:00,
2013-02-24 18:01:00,43.0,0.0,-100.00,NE,36,6.0,12.0,16,-99.99,,,-99.99,,2013-02-25 02:01:00,
2013-02-24 18:11:00,43.0,-1.0,-100.00,NNE,27,8.0,15.0,15,-99.99,,,-99.99,,2013-02-25 02:11:00,
2013-02-24 18:21:00,43.0,-1.0,-100.00,NNE,21,10.0,15.0,15,-99.99,,,-99.99,,2013-02-25 02:21:00,
2013-02-24 18:31:00,43.0,-3.0,-100.00,NNE,15,8.0,15.0,14,-99.99,,,-99.99,,2013-02-25 02:31:00,
2013-02-24 18:41:00,42.0,-2.0,-100.00,North,1,6.0,10.0,15,-99.99,,,-99.99,,2013-02-25 02:41:00,
2013-02-24 18:52:00,42.0,-2.0,-100.00,NNW,347,4.0,9.0,15,-99.99,,,-99.99,,2013-02-25 02:52:00,
2013-02-24 19:01:00,42.0,-4.0,-100.00,North,350,5.0,10.0,14,-99.99,,,-99.99,,2013-02-25 03:01:00,
2013-02-24 19:11:00,42.0,-4.0,-100.00,North,350,5.0,10.0,14,-99.99,,,-99.99,,2013-02-25 03:11:00,
2013-02-24 19:21:00,41.0,-2.0,-100.00,NNW,344,7.0,12.0,16,-99.99,,,-99.99,,2013-02-25 03:21:00,
2013-02-24 19:31:00,41.0,-3.0,-100.00,North,355,7.0,13.0,15,-99.99,,,-99.99,,2013-02-25 03:31:00,
2013-02-24 19:41:00,41.0,-2.0,-100.00,North,2,6.0,12.0,16,-99.99,,,-99.99,,2013-02-25 03:41:00,
2013-02-24 19:51:00,41.0,-2.0,-100.00,North,356,10.0,13.0,16,-99.99,,,-99.99,,2013-02-25 03:51:00,
2013-02-24 20:01:00,41.0,-2.0,-100.00,North,2,11.0,16.0,16,-99.99,,,-99.99,,2013-02-25 04:01:00,
2013-02-24 20:11:00,41.0,-2.0,-100.00,NNE,17,10.0,16.0,16,-99.99,,,-99.99,,2013-02-25 04:11:00,
2013-02-24 20:21:00,41.0,-2.0,-100.00,NNE,13,10.0,16.0,16,-99.99,,,-99.99,,2013-02-25 04:21:00,
2013-02-24 20:31:00,40.0,-3.0,-100.00,North,360,8.0,14.0,16,-99.99,,,-99.99,,2013-02-25 04:31:00,
2013-02-24 20:41:00,41.0,-2.0,-100.00,North,4,7.0,13.0,16,-99.99,,,-99.99,,2013-02-25 04:41:00,
2013-02-24 20:51:00,41.0,-2.0,-100.00,North,4,7.0,13.0,16,-99.99,,,-99.99,,2013-02-25 04:51:00,
2013-02-24 21:01:00,40.0,0.0,-100.00,NNE,32,6.0,12.0,18,-99.99,,,-99.99,,2013-02-25 05:01:00,
2013-02-24 21:11:00,40.0,-1.0,-100.00,North,1,7.0,14.0,17,-99.99,,,-99.99,,2013-02-25 05:11:00,
2013-02-24 21:22:00,39.0,-1.0,-100.00,North,0,8.0,12.0,18,-99.99,,,-99.99,,2013-02-25 05:22:00,
2013-02-24 21:31:00,40.0,-1.0,-100.00,North,352,10.0,14.0,17,-99.99,,,-99.99,,2013-02-25 05:31:00,
2013-02-24 21:41:00,40.0,-3.0,-100.00,North,6,9.0,13.0,16,-99.99,,,-99.99,,2013-02-25 05:41:00,
2013-02-24 21:52:00,41.0,-3.0,-100.00,North,4,11.0,16.0,15,-99.99,,,-99.99,,2013-02-25 05:52:00,
2013-02-24 22:02:00,40.0,-1.0,-100.00,NE,35,7.0,13.0,17,-99.99,,,-99.99,,2013-02-25 06:02:00,
2013-02-24 22:11:00,38.0,2.0,-100.00,NNE,31,4.0,10.0,21,-99.99,,,-99.99,,2013-02-25 06:11:00,
2013-02-24 22:21:00,38.0,1.0,-100.00,NE,42,4.0,8.0,20,-99.99,,,-99.99,,2013-02-25 06:21:00,
2013-02-24 22:31:00,39.0,-1.0,-100.00,NNE,17,6.0,8.0,18,-99.99,,,-99.99,,2013-02-25 06:31:00,
2013-02-24 22:41:00,39.0,-1.0,-100.00,NNE,20,6.0,13.0,18,-99.99,,,-99.99,,2013-02-25 06:41:00,
2013-02-24 22:51:00,39.0,-1.0,-100.00,NNE,21,8.0,11.0,18,-99.99,,,-99.99,,2013-02-25 06:51:00,
2013-02-24 23:01:00,40.0,-1.0,-100.00,NNE,15,10.0,13.0,17,-99.99,,,-99.99,,2013-02-25 07:01:00,
2013-02-24 23:11:00,40.0,-1.0,-100.00,NNE,19,8.0,12.0,17,-99.99,,,-99.99,,2013-02-25 07:11:00,
2013-02-24 23:21:00,41.0,-2.0,-100.00,NNE,12,9.0,13.0,16,-99.99,,,-99.99,,2013-02-25 07:21:00,
2013-02-24 23:31:00,41.0,-2.0,-100.00,NNE,21,9.0,12.0,16,-99.99,,,-99.99,,2013-02-25 07:31:00,
2013-02-24 23:41:00,40.0,-1.0,-100.00,NNE,25,8.0,13.0,17,-99.99,,,-99.99,,2013-02-25 07:41:00,
2013-02-24 23:51:00,39.0,-1.0,-100.00,NNE,17,9.0,15.0,18,-99.99,,,-99.99,,2013-02-25 07:51:00,